Terminal Aerodrome Forecast
Issued by NWS

Home | Current Version | Previous Version | Text Only | Print | Product List | Glossary On
Versions: 1 2 3 4 5 6 7 8 9 10 11 12 13 14 15 16 17 18 19 20 21 22 23 24 25 26 27 28 29 30 31 32 33 34 35 36 37 38 39 40 41 42
516
FTUS43 KDVN 292320
TAFCID
TAF
KCID 292320Z 3000/3024 08018G27KT 4SM -RA BR SCT035 BKN050 OVC060
     FM300400 07015G25KT 2SM -RA BR BKN020 OVC040
     FM300700 05013G20KT 3SM -RA BR OVC010=

USA.gov is the U.S. government's official web portal to all federal, state and local government web resources and services.